Theta_e
307 307 305 303 303 304 306 307 307 308 308 309 311 310 311 310 310 310 310 311 311 312 311 311 311 311 312 312 312 313 312 311 311 312 311 311 310 309 309 309 309 309 309 309 309 310 309 309 308 308 307 305 304 304 303 303 302 301 299 299 298 297
304 304 305 305 303 303 304 305 305 306 307 307 308 309 309 309 308 308 309 309 310 310 310 310 310 310 310 311 311 310 310 310 310 310 310 310 310 309 309 308 308 308 308 308 308 308 309 308 308 307 306 305 304 304 302 302 301 300 299 299 299 298
302 302 302 303 302 302 303 304 305 306 307 307 307 307 307 307 308 308 308 309 308 308 308 308 308 308 308 308 309 309 309 309 309 309 310 309 308 308 308 308 308 308 308 308 307 307 307 307 307 307 306 305 304 303 302 300 298 297 297 297 297 298
302 301 300 300 301 302 302 303 304 304 305 306 307 307 307 307 307 307 307 308 308 307 307 307 308 307 307 307 307 307 307 307 308 308 308 307 308 308 307 307 307 307 307 307 307 307 307 307 307 307 306 304 303 301 301 300 297 297 296 297 297 297
303 303 303 303 303 304 303 302 302 304 304 305 306 306 306 307 308 307 307 307 306 306 306 306 306 306 305 305 306 306 306 306 306 307 306 306 307 307 306 306 307 306 306 306 306 306 306 306 306 306 305 304 303 301 300 300 297 296 296 295 295 296
301 302 302 302 302 302 302 303 303 303 304 304 304 304 305 306 306 306 305 305 305 305 305 304 304 304 304 304 304 305 305 305 305 306 305 305 306 305 305 305 306 305 305 304 304 304 304 304 304 304 304 304 303 302 301 299 298 297 297 296 296 296
305 308 309 309 306 303 302 302 302 303 303 303 303 304 304 305 305 304 304 304 304 303 303 303 303 302 302 303 304 304 304 304 304 304 304 303 303 303 303 302 303 303 303 303 303 303 302 302 303 303 303 302 302 302 301 301 300 298 297 297 297 294
305 304 304 307 306 305 305 304 303 302 301 301 302 302 302 302 303 303 303 303 302 302 301 301 301 301 301 301 302 302 302 302 301 302 302 302 302 302 301 301 301 301 301 302 303 303 303 302 302 302 302 302 302 301 301 301 300 299 298 297 296 296
303 305 304 305 303 302 304 306 306 303 302 300 299 300 301 301 301 301 302 302 302 302 301 301 300 301 301 301 301 301 300 300 300 299 300 300 299 299 300 300 300 300 301 301 302 302 302 302 302 301 301 301 301 301 300 300 299 299 299 299 298 297
303 303 304 301 303 304 304 303 301 301 300 301 299 298 299 300 300 300 300 300 300 301 301 301 301 300 300 300 299 299 299 298 298 298 298 298 298 298 299 299 299 300 300 300 301 301 301 301 301 301 301 300 301 301 300 300 299 298 298 298 298 298
302 301 301 301 300 301 303 303 303 302 300 298 297 298 299 299 299 299 299 299 300 301 301 300 299 298 298 298 297 297 297 297 297 297 297 297 297 298 298 298 299 298 298 299 299 299 299 299 299 300 300 300 300 300 300 300 299 299 299 298 298 298
301 299 300 299 299 300 300 301 302 301 301 300 298 297 298 297 298 299 299 299 300 300 299 298 297 297 297 297 297 297 297 296 296 296 296 295 296 297 297 297 297 297 297 297 298 298 298 298 299 295 293 294 298 299 299 299 299 299 298 298 298 298
300 299 298 298 298 298 299 299 299 299 297 298 297 297 296 297 298 298 298 299 299 298 297 297 298 297 297 297 296 296 295 295 295 295 295 295 295 295 295 295 296 296 296 296 297 297 298 298 298 292 294 294 293 295 297 298 298 299 298 297 296 296
300 299 299 299 298 297 297 297 297 296 298 297 297 297 295 296 297 298 298 298 297 297 297 297 297 296 295 294 294 294 294 294 293 293 294 294 293 294 294 294 295 295 296 296 296 296 296 297 293 293 293 293 293 293 295 296 296 297 297 297 297 297
300 300 299 297 297 297 297 297 296 297 297 297 296 295 295 296 296 297 297 296 296 296 296 295 295 295 294 294 293 290 290 290 291 290 291 291 294 294 293 294 294 295 295 295 295 295 296 296 293 293 293 293 293 293 293 295 295 295 295 296 296 297
298 297 296 296 296 295 295 294 297 296 295 295 294 295 295 296 296 296 296 295 295 294 294 294 292 292 294 292 290 290 289 290 290 292 293 291 291 292 292 293 293 293 294 294 294 294 295 295 292 293 292 292 292 292 293 294 295 295 295 295 296 296
296 295 295 295 293 293 293 293 293 294 294 294 294 294 295 295 295 294 294 293 293 293 293 293 293 293 291 290 289 289 289 289 290 289 289 290 291 290 290 291 290 292 292 293 293 293 293 294 292 292 292 292 292 292 292 294 294 295 295 295 295 296
295 296 294 292 293 293 293 292 293 294 292 293 294 293 294 294 294 294 294 293 293 293 293 292 293 291 290 290 289 289 289 290 289 289 289 290 290 290 291 290 290 289 289 290 292 292 292 292 291 291 291 291 292 292 292 293 293 293 294 294 294 294
293 292 292 292 292 292 291 291 292 293 292 292 292 292 292 292 292 291 291 291 292 291 292 292 291 289 289 288 288 288 288 288 288 289 289 289 289 290 290 289 289 290 290 289 289 290 291 291 291 291 290 291 291 291 291 291 291 291 292 292 293 293
291 291 292 291 290 289 290 291 292 292 291 291 291 291 290 290 289 289 289 290 290 290 290 290 289 288 287 287 287 287 287 288 288 288 288 289 289 289 289 290 290 290 289 288 288 290 289 289 290 290 290 290 291 290 290 290 290 290 290 290 292 292
290 291 291 291 289 289 289 291 292 291 289 289 289 289 288 287 287 287 287 288 288 288 289 289 287 287 286 286 286 286 286 286 287 288 288 288 288 288 289 289 289 289 289 288 288 287 287 288 288 289 289 290 290 290 289 290 290 289 289 290 290 292
291 289 289 288 287 288 289 290 289 288 288 287 288 286 286 285 286 286 286 287 287 288 287 286 285 285 285 285 285 285 286 286 287 287 287 287 288 288 289 289 288 287 287 288 288 288 288 288 288 288 289 289 289 290 289 290 289 289 288 289 289 289
287 286 286 286 287 288 288 289 288 287 286 286 285 284 284 284 285 285 285 286 286 285 285 285 285 284 284 285 284 285 285 286 286 286 286 286 287 287 287 286 286 286 287 288 288 288 288 288 287 287 288 289 289 289 289 288 288 288 288 289 289 289
285 285 285 285 285 286 287 287 286 285 285 284 283 283 284 284 284 284 285 285 284 284 284 284 284 284 284 284 284 284 284 285 285 284 285 286 286 285 285 285 286 286 287 287 288 288 287 287 286 287 287 288 288 289 289 288 288 288 288 288 287 288
284 283 283 283 284 284 284 284 283 283 283 281 281 282 282 282 283 283 284 283 283 283 283 283 283 283 284 284 284 283 283 284 284 284 284 284 284 284 284 285 285 286 286 287 288 289 288 288 287 286 286 286 287 288 288 288 288 289 288 287 286 287
283 282 282 282 282 282 282 282 281 281 280 279 280 280 280 281 281 282 282 282 282 282 282 282 282 283 283 283 283 283 283 283 283 284 284 285 284 285 285 286 286 286 286 286 287 288 289 288 288 286 285 285 286 287 287 288 288 288 287 287 287 287
282 281 281 281 281 281 281 281 279 278 277 277 277 277 278 278 279 280 280 280 280 281 281 281 282 282 283 282 283 282 282 282 283 282 284 284 284 284 285 285 286 286 286 286 286 287 288 288 288 287 286 284 284 285 286 286 287 287 287 286 286 287
281 281 279 279 280 280 280 279 277 275 275 275 275 275 274 276 276 277 279 278 278 279 279 279 280 281 281 281 281 281 281 281 281 281 282 283 283 284 284 285 285 285 285 286 286 287 287 287 287 287 286 285 284 284 284 285 285 284 284 284 284 284
279 278 278 277 278 278 278 277 275 274 273 272 273 272 272 274 274 274 276 276 277 278 278 277 278 278 279 279 280 280 280 281 281 281 282 282 283 284 284 284 284 285 285 285 286 286 286 286 287 287 286 286 286 286 285 285 284 284 283 284 284 284
277 277 277 276 277 277 277 276 274 272 272 271 271 271 271 272 272 272 273 273 275 275 276 275 275 275 277 277 277 278 279 280 281 281 281 282 282 282 283 283 284 284 284 284 285 285 284 285 286 286 286 286 286 286 286 286 285 284 284 284 285 285
276 276 275 275 275 275 275 275 273 272 271 270 270 270 269 270 271 271 272 272 273 273 273 273 274 274 274 275 276 277 278 278 279 279 280 281 282 282 281 281 282 282 283 283 283 283 283 284 284 285 286 285 285 285 285 285 285 285 286 285 286 284
276 275 274 273 273 273 273 273 273 271 270 269 268 268 268 268 269 270 270 271 270 271 271 272 272 273 273 274 274 275 276 277 279 279 279 279 281 282 282 282 281 282 283 283 283 284 282 282 284 285 285 285 285 285 286 286 286 286 286 286 286 285
275 274 272 272 272 272 272 271 271 269 268 267 267 267 266 267 268 269 269 269 269 270 270 271 271 272 272 273 273 274 274 275 278 280 280 280 281 281 281 282 283 283 284 283 283 284 285 285 285 285 285 285 285 285 285 286 286 286 286 286 285 284
273 272 270 270 270 270 270 269 269 267 266 266 265 265 265 265 266 267 268 269 269 270 270 271 271 272 272 272 272 273 273 274 274 276 279 280 280 281 281 281 282 282 283 283 283 283 283 284 284 285 285 285 285 285 285 286 286 286 286 286 286 283
271 270 269 268 268 268 268 267 267 266 264 265 265 265 264 264 265 265 267 268 269 269 270 271 271 271 272 271 272 272 273 273 274 273 274 277 279 280 280 281 281 282 283 283 283 283 283 283 284 284 284 285 285 285 285 285 286 286 286 286 284 282
269 267 267 266 266 266 266 265 265 264 263 263 263 264 264 264 265 265 266 267 268 268 269 270 271 271 271 272 272 272 273 273 274 273 274 274 275 277 279 281 281 282 282 283 283 283 283 284 284 284 284 284 284 285 285 285 285 286 286 285 282 282
267 266 265 265 265 264 264 263 263 262 262 262 263 263 263 264 264 265 266 267 268 268 269 269 270 271 271 271 271 272 272 273 274 275 274 275 275 275 276 277 279 281 282 282 283 283 283 283 283 283 284 284 284 284 285 285 283 282 283 283 283 283
265 265 264 263 263 262 262 261 262 262 261 262 262 262 263 263 264 265 266 267 267 268 268 269 269 270 270 271 272 273 273 274 275 275 275 276 276 276 276 277 279 280 281 282 282 283 283 283 283 283 283 283 283 284 284 282 281 281 281 282 282 282
Wind_Speed
4 3 4 4 3 3 3 4 4 4 4 5 6 8 7 8 7 7 6 7 6 7 9 10 9 8 8 7 7 7 9 10 9 9 9 8 7 7 7 8 8 8 9 9 9 9 10 11 11 11 10 9 9 8 8 8 8 9 10 9 9 10
3 3 2 3 5 4 4 4 4 6 6 6 6 5 5 6 7 7 7 8 7 7 7 7 7 7 7 6 7 7 8 8 9 9 9 9 7 7 8 8 8 9 9 8 9 9 10 11 11 11 11 9 8 8 8 7 9 10 11 11 10 8
3 2 2 1 1 1 3 4 5 5 5 6 7 8 7 7 8 7 8 7 7 7 8 7 7 7 6 6 7 7 7 7 6 6 6 5 7 7 7 8 9 9 9 9 9 9 9 9 12 10 10 10 9 8 8 7 8 10 10 9 10 10
3 2 1 1 1 2 3 3 3 4 5 5 5 5 6 7 8 8 7 6 6 7 7 7 5 5 5 6 7 8 7 6 7 7 7 8 9 10 10 10 8 8 9 9 9 9 9 9 11 12 10 10 10 8 7 8 8 9 10 9 10 10
3 3 3 4 4 3 4 3 4 4 5 5 5 5 7 7 6 6 6 6 6 7 6 6 6 5 6 7 7 8 7 7 6 6 8 9 9 9 9 10 10 11 9 8 9 9 9 9 10 9 11 11 11 10 9 9 8 10 10 10 11 10
3 3 4 4 4 4 5 5 5 5 5 5 5 7 7 6 6 5 5 5 6 6 6 6 6 6 7 7 7 8 7 6 6 6 9 9 9 9 8 9 10 10 10 10 8 8 9 9 9 9 9 12 12 12 12 10 9 9 10 10 10 10
1 1 0 3 5 4 4 5 5 5 5 5 6 6 6 5 5 5 5 6 6 6 6 6 6 6 7 7 6 7 6 6 6 6 8 8 8 9 8 8 8 10 10 10 11 10 10 10 10 9 9 9 11 12 11 11 10 10 10 11 11 11
2 2 2 2 1 1 2 4 4 4 4 5 4 4 5 6 5 6 6 6 6 6 6 6 6 7 7 6 6 6 6 5 5 5 6 8 9 9 8 8 8 8 9 10 11 12 11 9 9 9 9 9 9 10 11 11 11 11 11 11 11 11
4 2 2 3 3 3 3 3 0 2 3 3 3 3 3 4 4 5 6 5 6 5 6 6 6 5 5 5 5 4 4 4 4 5 6 6 8 8 8 8 8 8 9 10 10 11 12 10 8 9 9 9 9 10 13 12 12 12 12 11 11 11
3 4 3 3 4 3 2 2 1 1 1 0 1 2 3 3 4 5 5 5 5 5 5 4 4 3 3 3 2 3 4 4 4 5 4 5 8 8 8 8 8 8 9 9 10 11 10 9 10 9 9 9 10 11 12 12 12 12 11 11 11 11
6 6 5 5 4 4 4 5 5 3 2 1 1 1 2 2 3 4 4 5 5 4 3 2 1 1 2 2 3 4 4 4 4 4 4 5 7 7 7 7 8 8 9 9 9 10 10 10 8 7 7 8 9 11 13 13 13 13 12 13 13 13
6 6 5 4 4 4 4 5 5 4 5 3 1 1 1 2 3 4 4 3 3 1 1 1 1 2 3 3 4 4 3 3 3 4 5 5 6 6 6 7 7 7 8 9 9 9 9 9 9 8 10 9 10 10 10 11 13 14 13 13 14 15
3 3 4 5 5 6 6 4 3 2 3 2 1 1 1 2 3 3 2 2 1 1 1 1 2 2 2 2 2 2 2 3 3 4 5 5 5 5 5 6 7 7 7 8 9 9 9 8 8 9 10 11 13 10 10 11 12 13 14 14 14 15
5 5 4 4 5 6 5 5 4 3 3 2 2 2 2 3 4 3 2 1 1 1 1 0 0 1 1 1 2 3 3 3 4 4 4 4 4 4 4 5 5 5 6 6 8 8 8 8 7 10 11 11 12 11 10 10 11 11 14 14 15 14
5 4 3 4 5 5 5 3 3 3 2 1 1 2 4 4 2 2 2 2 2 1 1 0 1 2 2 2 2 1 1 2 2 2 2 3 4 3 4 5 5 5 6 6 8 8 8 8 7 9 11 11 12 13 12 10 11 12 13 13 14 16
3 4 4 5 4 5 4 4 3 3 2 3 3 3 2 3 4 4 3 3 1 0 1 2 1 2 3 2 2 2 2 2 2 2 2 1 2 4 4 5 6 6 6 7 8 8 8 9 7 9 11 12 12 13 12 11 12 13 14 15 14 14
4 5 7 7 6 5 6 6 4 5 4 3 5 4 5 5 5 3 3 2 2 2 2 2 3 2 1 1 1 1 1 1 1 2 2 2 2 2 3 3 4 6 6 7 7 8 9 7 7 9 11 12 12 12 12 11 11 12 13 14 15 16
9 8 5 2 3 3 4 4 3 5 6 5 6 6 5 5 5 4 2 3 2 1 1 1 1 0 0 0 0 0 1 1 1 2 2 2 2 2 2 3 4 4 4 5 7 8 10 8 7 9 10 12 12 12 9 9 11 12 12 13 13 13
5 6 6 5 5 4 5 4 5 6 7 7 6 6 5 5 6 5 4 4 4 3 3 2 2 1 1 1 2 2 2 2 2 2 2 2 2 3 3 3 4 4 4 4 5 8 9 9 9 9 10 12 12 10 7 7 8 10 11 12 11 11
8 7 7 7 7 6 4 4 5 7 8 7 6 6 6 6 6 5 5 5 5 4 4 3 2 2 2 2 2 2 2 2 2 2 2 2 3 4 3 3 4 4 4 5 5 7 7 8 8 8 9 11 12 11 7 7 9 10 11 11 11 10
9 8 7 7 9 6 5 6 7 8 8 6 5 5 6 6 5 5 5 5 5 4 4 4 2 2 2 2 2 2 2 2 2 2 2 3 3 4 4 4 4 4 4 4 5 8 8 8 9 11 12 12 12 10 7 8 9 10 11 10 11 11
9 9 9 9 7 6 6 6 8 8 7 6 5 7 7 6 5 5 4 4 4 4 4 2 2 2 2 3 3 3 3 3 3 2 3 3 3 4 3 4 4 5 6 4 5 5 6 7 7 6 12 12 12 12 8 7 9 11 11 10 11 11
9 9 9 7 7 6 5 5 7 8 6 6 7 8 6 5 5 4 4 3 3 2 3 3 3 4 4 3 4 3 3 2 3 4 4 4 4 4 5 5 6 6 7 5 5 5 5 5 8 8 9 11 12 13 12 8 10 10 11 11 10 10
10 10 11 10 9 8 6 6 8 7 6 7 9 7 6 5 5 4 4 4 3 3 4 4 4 4 4 4 4 5 4 3 2 3 4 4 5 6 6 5 6 6 7 6 5 5 6 7 10 7 10 12 14 14 15 11 9 9 10 12 12 11
10 11 10 9 9 8 7 7 8 7 7 10 8 6 6 6 5 5 4 3 4 5 5 5 5 4 3 4 4 4 5 5 4 4 4 5 5 6 7 6 5 6 7 6 6 5 5 4 6 10 8 11 13 15 15 17 13 13 11 11 13 11
9 10 10 9 9 8 8 7 8 8 9 9 7 6 6 6 6 4 4 4 5 5 4 5 5 4 4 4 5 5 5 5 5 5 4 4 5 5 6 5 4 5 6 6 6 3 4 3 4 7 10 10 12 13 15 16 17 17 11 11 12 11
10 9 10 9 10 9 8 7 8 9 10 8 7 7 7 7 7 6 6 6 6 6 6 6 5 5 5 5 5 5 5 6 5 5 4 4 5 5 6 6 4 5 6 6 7 6 4 3 3 3 6 10 10 12 15 16 16 16 17 13 11 11
9 9 10 10 10 9 8 8 9 11 8 7 8 8 8 7 8 8 9 8 6 7 7 8 7 6 6 6 4 4 4 5 5 5 5 5 5 5 5 6 5 5 6 7 7 6 5 4 4 5 4 5 7 8 12 15 14 14 15 14 13 16
8 9 9 10 9 8 8 9 9 8 7 8 8 8 8 7 7 7 7 7 7 6 6 7 5 7 6 5 4 4 4 4 4 5 5 5 5 6 6 6 6 6 6 7 8 7 7 6 5 4 3 3 4 4 5 6 6 9 9 8 7 9
9 9 9 9 8 7 7 8 8 8 7 8 8 8 8 7 7 6 7 7 7 6 7 6 7 7 5 5 6 6 5 4 4 5 5 5 5 6 7 6 7 7 7 8 8 9 9 8 5 4 4 4 4 7 9 9 9 8 6 6 6 7
9 9 10 9 7 7 7 7 7 8 8 8 8 8 7 7 7 6 6 6 6 5 6 6 6 6 7 7 6 5 5 6 6 6 7 6 5 5 6 7 8 8 7 9 9 10 11 9 7 3 5 6 11 12 11 11 9 9 10 12 14 10
9 9 9 8 7 6 6 6 6 7 8 7 7 7 6 6 5 5 5 5 5 6 6 6 6 6 6 7 7 8 8 7 10 10 8 8 7 11 14 12 11 10 9 11 11 10 11 13 12 16 20 21 19 19 20 19 18 18 16 16 21 15
8 9 9 7 6 6 6 5 6 7 7 7 7 7 6 6 4 4 5 5 5 6 6 6 6 7 6 7 7 8 9 10 7 7 12 14 14 14 15 16 18 19 18 14 14 14 19 21 24 24 22 21 20 19 19 18 19 18 18 18 13 10
8 8 7 6 6 6 5 5 6 8 8 8 8 7 7 7 6 5 6 6 6 7 7 6 6 7 7 7 7 8 9 9 11 11 6 8 14 14 14 16 17 18 18 19 18 16 14 16 18 19 20 20 21 21 20 20 20 19 19 18 17 12
6 6 5 5 5 6 6 6 7 8 8 8 8 8 8 8 7 6 6 6 6 6 7 7 7 7 7 8 9 9 8 9 9 11 13 11 11 15 17 17 16 16 16 17 18 19 19 19 20 22 21 19 19 19 19 19 19 19 18 18 12 10
6 6 7 7 7 6 6 6 7 8 9 9 9 9 8 7 7 7 6 6 7 8 7 7 7 8 8 9 9 9 9 9 9 10 11 13 14 10 9 11 13 14 17 17 18 19 19 19 19 19 20 19 18 17 18 17 14 17 17 15 11 10
7 6 7 6 6 6 5 6 7 8 8 8 9 8 7 7 7 6 7 9 8 6 6 7 6 7 7 7 7 8 8 8 9 9 10 10 12 13 13 11 10 11 14 14 15 17 19 18 19 18 18 18 17 17 17 17 11 9 7 7 7 8
6 5 5 6 5 5 5 5 7 8 8 9 9 8 7 7 7 6 6 6 6 6 6 6 7 7 7 7 7 7 7 8 9 9 10 10 11 11 12 12 10 10 12 17 17 18 18 17 17 16 17 17 18 17 15 9 9 9 7 7 6 7
Wind_Direction
233 198 178 169 187 189 190 183 182 192 195 190 193 189 188 183 183 189 193 197 203 211 213 211 210 212 212 215 219 224 235 238 239 243 246 247 234 224 222 220 224 221 220 221 228 227 232 239 243 240 229 217 224 221 224 221 214 221 228 224 221 229
239 234 203 171 175 186 196 193 191 201 198 191 197 192 180 181 190 193 201 200 203 208 208 209 208 208 211 211 210 216 222 221 221 223 225 231 228 227 222 225 224 223 222 222 225 226 233 238 242 243 234 222 221 221 223 217 214 223 228 230 224 225
236 247 252 264 112 155 177 192 200 201 196 201 197 193 192 196 200 198 207 199 206 206 208 207 206 212 212 215 217 227 227 222 221 228 232 235 236 232 231 229 231 231 229 228 226 225 227 228 239 240 238 229 223 221 224 218 214 223 231 228 232 226
199 225 289 312 260 213 205 196 200 207 209 210 199 198 199 199 201 204 206 203 205 206 210 210 208 206 210 217 225 231 234 237 236 235 240 241 250 250 249 245 237 234 233 234 232 230 228 231 234 241 239 236 230 225 221 222 217 225 231 227 234 228
170 180 186 183 194 194 194 202 209 211 209 205 206 204 213 207 208 202 204 206 207 211 210 206 208 205 213 216 225 229 230 231 233 235 244 248 253 249 244 248 249 248 239 236 236 234 234 231 233 232 238 239 233 228 228 223 219 223 227 228 232 231
188 185 176 183 188 194 197 198 203 203 204 204 200 209 212 206 208 202 201 208 211 208 204 208 208 206 211 218 225 229 230 228 232 239 247 249 251 249 247 247 250 248 247 244 239 234 235 234 231 231 229 239 241 238 235 227 225 227 230 231 233 230
301 23 183 159 157 175 179 193 199 200 205 199 202 206 205 203 198 197 198 202 206 203 208 210 204 207 213 220 225 228 230 232 230 234 246 248 248 249 251 246 245 248 247 247 248 242 235 236 236 235 234 230 238 242 241 238 231 226 230 231 232 230
346 309 301 307 327 149 167 169 174 185 193 202 200 199 192 204 193 194 191 192 200 201 204 208 203 211 215 217 226 228 227 228 228 229 240 251 252 253 247 246 246 244 246 248 249 251 248 241 235 236 236 233 229 238 247 246 242 237 232 232 233 231
276 307 319 309 319 330 325 342 82 151 163 167 182 201 201 192 189 187 189 188 197 202 205 205 206 207 212 219 228 227 230 235 233 230 234 240 246 249 248 245 245 244 247 249 250 251 253 249 242 241 239 237 234 238 248 248 247 246 244 241 238 236
298 287 271 275 272 288 249 222 238 276 312 270 152 184 194 193 193 186 187 181 194 207 206 201 204 206 219 227 231 237 237 235 230 229 233 231 247 247 248 249 246 249 249 253 254 257 254 247 250 244 241 240 245 249 249 249 249 245 241 245 246 241
226 244 252 254 289 282 314 330 328 324 279 195 242 209 208 185 188 190 187 185 200 203 184 174 174 210 227 222 229 229 229 227 229 227 230 236 244 246 248 250 251 253 254 256 256 259 259 256 246 240 240 243 244 249 252 252 251 253 255 252 246 245
186 204 214 231 229 251 276 294 298 306 321 327 16 255 207 166 205 196 188 189 196 142 108 129 167 207 210 212 219 227 222 226 230 230 234 234 235 240 249 251 252 253 256 260 260 258 258 257 258 237 235 243 255 259 257 257 256 257 258 258 256 252
204 188 203 224 225 226 225 227 246 284 278 277 305 255 199 203 206 207 180 175 104 83 114 184 199 191 214 216 228 228 225 226 221 229 234 235 232 235 239 246 252 255 259 260 262 262 259 255 256 244 239 240 241 248 258 260 262 260 257 257 256 257
200 214 202 192 204 218 221 214 208 217 235 201 197 172 159 196 204 181 144 100 85 119 141 191 145 239 235 228 230 222 223 222 220 226 225 230 235 235 232 241 247 251 254 258 259 258 255 255 244 243 246 242 242 238 248 256 259 257 259 258 258 259
217 225 238 196 196 214 215 191 169 184 174 148 107 126 178 185 147 98 79 66 64 54 46 317 245 234 232 227 221 217 209 214 226 232 226 232 237 247 243 246 245 246 245 247 256 258 256 256 248 248 251 250 246 243 241 252 254 257 257 255 256 260
197 217 222 235 232 224 192 185 152 139 139 149 156 149 100 74 57 54 56 51 48 43 204 210 211 215 214 205 210 209 208 210 226 235 242 242 241 245 251 249 248 249 245 246 253 261 262 258 253 249 254 254 250 247 243 251 254 257 258 258 259 259
187 206 208 196 186 176 159 145 155 149 130 119 99 79 84 75 81 78 101 126 150 171 186 196 203 208 198 206 205 208 219 224 257 260 259 244 240 240 243 245 246 243 243 250 252 261 267 259 250 251 255 257 253 250 246 254 254 256 259 259 260 260
195 189 154 109 92 74 66 83 93 94 83 74 79 83 85 101 101 97 99 88 75 75 41 358 314 289 278 307 318 317 308 296 276 280 284 267 259 250 252 258 253 255 249 248 252 260 268 266 249 246 251 257 257 251 251 252 254 255 256 256 256 253
141 101 92 76 60 61 58 70 85 90 91 83 80 83 81 73 65 47 34 32 21 13 8 0 347 340 341 346 339 329 316 305 292 286 282 270 261 257 249 247 247 246 245 241 242 253 264 271 264 254 250 252 254 254 254 253 255 257 255 255 255 255
88 83 85 90 68 52 61 82 101 97 87 81 74 74 65 57 46 29 16 13 1 353 355 357 353 342 339 337 323 313 316 309 298 283 275 275 281 273 262 266 267 252 241 239 238 242 262 270 274 269 260 252 251 249 255 256 262 263 261 265 256 252
83 88 79 74 67 47 66 97 98 87 82 75 71 65 61 45 30 16 4 355 349 349 353 355 353 344 333 321 316 322 310 305 303 303 297 278 275 270 274 264 267 265 262 245 243 251 254 267 275 272 267 261 258 254 255 260 267 268 265 267 271 266
88 67 58 55 51 51 71 84 80 79 78 71 64 57 45 27 11 353 349 346 349 356 355 354 348 334 329 318 314 324 321 316 311 306 304 294 285 286 286 286 283 277 276 270 266 254 248 261 268 266 265 261 256 251 257 264 266 267 269 267 270 275
70 70 61 51 43 48 51 65 76 74 66 61 57 45 24 2 351 348 348 351 356 3 358 358 1 339 334 331 329 323 318 323 320 314 309 302 296 294 294 287 285 278 272 263 252 261 254 247 265 267 254 260 262 262 257 261 257 261 268 273 274 271
75 69 57 45 40 41 38 53 72 67 60 56 45 24 359 351 349 348 353 3 8 4 360 360 352 343 340 334 329 331 319 315 305 297 302 301 303 293 281 275 279 279 276 273 255 242 251 248 244 261 263 255 258 258 253 255 258 257 270 276 273 272
70 63 60 45 41 40 39 53 66 62 58 52 28 1 354 348 349 351 356 4 5 1 356 355 350 343 339 333 329 314 307 310 313 298 282 273 274 268 269 268 263 268 273 271 265 249 234 228 234 238 248 251 249 253 254 251 254 259 261 267 273 272
79 75 62 54 47 42 39 54 68 61 59 42 7 351 347 347 347 345 356 6 1 352 356 350 341 341 338 338 329 319 311 312 311 303 291 292 287 290 287 284 278 278 278 283 285 266 253 230 235 225 230 247 247 252 257 259 259 263 261 263 269 273
84 80 70 57 54 49 46 47 65 64 51 21 2 353 351 346 348 353 4 1 354 353 347 339 337 334 338 339 332 322 316 309 314 308 302 292 290 282 284 285 287 285 289 288 283 284 276 265 258 255 233 234 246 253 262 267 266 266 266 268 268 266
77 78 75 64 55 54 53 51 51 50 34 10 4 355 348 346 357 4 3 355 349 346 343 340 335 336 325 309 303 288 288 296 302 298 298 298 286 281 279 284 287 286 285 284 284 285 285 274 270 263 251 243 252 254 256 258 263 264 263 261 268 272
71 67 65 61 47 49 51 57 53 48 27 12 3 356 351 348 360 355 354 350 342 339 342 337 340 331 317 306 307 299 292 291 286 285 283 278 282 283 285 285 290 291 289 286 291 296 296 291 285 279 278 272 281 281 274 269 268 261 257 261 264 268
72 69 65 58 44 44 49 54 51 38 24 12 2 355 354 357 358 350 341 337 333 336 339 328 326 327 325 326 326 320 315 299 286 283 274 277 291 298 296 297 293 291 295 298 300 300 297 291 282 283 292 303 307 309 307 303 301 299 294 286 286 288
69 72 66 57 44 41 46 52 50 33 22 9 359 353 354 353 350 345 337 345 339 337 337 329 333 336 332 324 318 303 302 301 296 290 285 269 263 268 283 293 289 288 292 293 295 299 298 291 286 289 342 313 303 298 299 298 295 298 296 294 295 292
68 69 60 47 37 34 39 41 44 36 20 8 357 351 345 337 331 344 349 345 345 343 338 340 338 333 326 321 314 312 303 284 275 270 277 286 280 275 274 272 276 283 292 291 284 281 282 288 292 303 304 298 296 292 288 287 286 284 285 288 290 288
70 73 58 44 30 28 32 37 38 30 15 7 356 348 341 335 337 349 354 351 347 338 328 331 333 333 325 321 321 316 316 314 310 287 285 284 284 283 283 283 282 284 283 281 287 285 279 279 286 293 296 295 293 290 287 286 285 284 282 285 289 280
63 67 57 43 34 28 28 31 30 24 7 359 349 348 348 349 353 346 344 341 330 337 338 330 332 332 335 327 324 321 319 320 317 313 299 306 308 301 294 290 290 290 290 287 284 287 290 289 289 291 294 294 292 290 289 288 287 285 284 283 281 276
61 64 52 45 32 30 28 28 26 17 358 351 345 345 348 350 345 327 319 320 330 329 334 338 336 332 329 329 325 323 319 319 318 319 321 326 323 306 302 298 292 290 292 293 292 289 287 290 293 292 289 287 289 290 289 287 287 287 284 281 273 264
67 53 40 31 27 22 24 25 21 9 355 348 342 342 335 334 332 325 322 329 329 332 333 337 331 329 327 326 322 317 317 311 310 306 306 308 314 309 284 280 289 298 301 301 298 294 295 296 295 292 291 292 292 292 291 292 291 288 283 272 265 265
60 52 42 32 20 16 18 19 12 1 345 340 337 334 332 335 335 329 321 322 323 324 322 317 313 310 306 306 307 305 302 299 300 299 298 299 303 307 309 312 308 306 308 305 305 303 299 298 298 299 299 299 299 298 297 297 292 286 283 271 262 266
55 54 44 29 14 16 12 7 3 351 339 338 336 336 336 341 338 335 330 326 325 320 313 305 302 299 296 295 295 296 293 294 296 298 296 296 294 296 301 304 307 308 306 297 293 291 294 300 306 306 305 303 301 298 298 291 285 286 281 277 267 270